Location: Heisler
(52.6701°N, 112.2239°W)
Time: 07:58:14
(UTC+00:00)

Envisat - Pass Details

Date: 05 December 2021
Orbit: 764 x 766 km, 98.2° (Epoch: 25 January)

Event Time Altitude Azimuth Distance (km) Brightness Sun altitude
Rises 11:33:50 0° 22° (NNE) 3,247 6.6 -33.6°
Reaches altitude 10° 11:36:33 10° 36° (NE) 2,316 5.9 -33.2°
Maximum altitude 11:40:44 25° 91° (E) 1,508 5.1 -32.5°
Drops below altitude 10° 11:44:54 10° 147° (SSE) 2,300 5.8 -31.9°
Sets 11:47:34 0° 160° (SSE) 3,221 6.4 -31.5°
